AirNav   Everest Fuels
 
 1217 users online  

I95 Hardin County Airport
Kenton, Ohio, USA

GOING TO KENTON?


FAA INFORMATION EFFECTIVE 19 MAY 2022

Location

FAA Identifier: I95
Lat/Long: 40-36-36.3330N 083-38-39.3334W
40-36.605550N 083-38.655557W
40.6100925,-83.6442593
(estimated)
Elevation: 1029 ft. / 313.6 m (surveyed)
Variation: 06W (2010)
From city: 3 miles SW of KENTON, OH
Time zone: UTC -4 (UTC -5 during Standard Time)
Zip code: 43326

Airport Operations

Airport use: Open to the public
Activation date: 07/1968
Control tower: no
ARTCC: INDIANAPOLIS CENTER
FSS: DAYTON FLIGHT SERVICE STATION
NOTAMs facility: DAY (NOTAM-D service available)
Attendance: SAT-SUN 0900-1700, ALL MON-FRI 0900-1800
UNATNDD MAJ. HOL.
Wind indicator: lighted
Segmented circle: no
Lights: ACTVT MIRL RWY 04/22 - CTAF 3 CLICKS IN 3 SECONDS
Beacon: white-green (lighted land airport)
Operates sunset to sunrise.

Airport Communications

CTAF/UNICOM: 122.8
WX AWOS-2: 126.4 (419-675-0781)
COLUMBUS APPROACH: 118.425
COLUMBUS DEPARTURE: 118.425
WX AWOS-3 at EDJ (16 nm SW): 118.075 (937-599-4654)
WX ASOS at AOH (18 nm W): 128.725 (419-224-6098)

Nearby radio navigation aids

VOR radial/distance  VOR name  Freq  Var
FBCr168/21.3FLAG CITY VORTAC108.2002W
BUDr274/(26.4)BUCKEYE VOR109.8005W
RODr048/26.6ROSEWOOD VORTAC117.5005W

 
NDB name  Hdg/Dist  Freq  Var  ID
TIFFIN219/35.026905WTII - .. ..

Airport Services

Fuel available: 100LL JET-A1+
Parking: hangars and tiedowns
Airframe service: MAJOR
Powerplant service: MAJOR
Bottled oxygen: NONE
Bulk oxygen: NONE

Runway Information

Runway 4/22

Dimensions: 4797 x 75 ft. / 1462 x 23 m
Surface: asphalt, in good condition
Weight bearing capacity: 
Single wheel: 19.0
Runway edge lights: medium intensity
RUNWAY 4  RUNWAY 22
Latitude: 40-36.301475N40-36.909615N
Longitude: 083-38.986277W083-38.324792W
Elevation: 1029.0 ft.1003.6 ft.
Traffic pattern: rightleft
Runway heading: 046 magnetic, 040 true226 magnetic, 220 true
Markings: nonprecision, in fair conditionnonprecision, in fair condition
Runway end identifier lights: nono
Touchdown point: yes, no lightsyes, no lights
Obstructions: 101 ft. tree, 1414 ft. from runway, 160 ft. right of centerline, 12:1 slope to clear
+ 68 FT TREES, 1066 FT FM 305 FT RIGHT. APCH RATIO 12:1.
30 ft. acft, 201 ft. from runway, 220 ft. right of centerline
30 FT TWY 0-200 FT FM RWY END 220-250 FT R.

Airport Ownership and Management from official FAA records

Ownership: Publicly-owned
Owner: HARDIN CO ARPT AUTH
13177 COUNTY RD 130
KENTON, OH 43326
Phone (419) 675-0546
Manager: ED MCCORMICK
13975 CO RD 135
KENTON, OH 43326
Phone 419-673-9542

Airport Operational Statistics

Aircraft based on the field: 19
Single engine airplanes: 19
    
Aircraft operations: avg 126/week *
56% local general aviation
34% transient general aviation
10% air taxi
<1% military
* for 12-month period ending 11 September 2019

Additional Remarks

DEER & BIRDS ON & INVOF ARPT.
FOR CD CTC COLUMBUS APCH AT 614-338-8537.

Instrument Procedures

NOTE: All procedures below are presented as PDF files. If you need a reader for these files, you should download the free Adobe Reader.

NOT FOR NAVIGATION. Please procure official charts for flight.
FAA instrument procedures published for use from 19 May 2022 at 0901Z to 16 June 2022 at 0900Z.

 
IAPs - Instrument Approach Procedures
RNAV (GPS) RWY 04   download (209KB)
RNAV (GPS) RWY 22   download (170KB)
NOTE: Special Take-Off Minimums/Departure Procedures apply   download (164KB)

Other nearby airports with instrument procedures:

KEDJ - Bellefontaine Regional Airport (16 nm SW)
KAOH - Lima Allen County Airport (18 nm W)
5G7 - Bluffton Airport (19 nm NW)
56D - Wyandot County Airport (22 nm NE)
KFDY - Findlay Airport (24 nm N)
 
Loc | Ops | Rwys | IFR | FBO | Links
Com | Nav | Svcs | Stats | Notes
Area around I95 (Hardin County Airport)
 
Road maps at: MapQuest Bing Google
 
Aerial photo
WARNING: Photo may not be current or correct
Aerial photo of I95 (Hardin County Airport)
Photo taken 23-Aug-2016
looking northeast

Do you have a better or more recent aerial photo of Hardin County Airport that you would like to share? If so, please send us your photo.

 
Sectional chart

 
Airport distance calculator
Flying to Hardin County Airport? Find the distance to fly.

From to I95

Sunrise and sunset
Times for 26-May-2022
 Local
(UTC-4)
 Zulu
(UTC)
Morning civil twilight05:3809:38
Sunrise06:1010:10
Sunset20:5300:53
Evening civil twilight21:2501:25

Current date and time
Zulu (UTC)  26-May-2022 23:28:55
Local (UTC-4)  26-May-2022 19:28:55
 
METAR
KEDJ 
16nm SW 
262315Z AUTO 15006KT 10SM CLR 18/17 A2986 RMK A01
KAOH 
18nm W 
262253Z AUTO 15009KT 10SM CLR 19/16 A2983 RMK AO2 SLP097 T01890161
KFDY 
24nm N 
262253Z AUTO 16008KT 10SM CLR 19/16 A2983 RMK AO2 SLP091 T01940161
KMNN 
26nm E 
262153Z AUTO 24005KT 2 1/2SM -RA BR FEW004 BKN026 OVC044 17/16 A2990 RMK AO2 PK WND 24031/2110 WSHFT 2108 RAB12 SLP122 P0057 T01670156 $
KMRT 
27nm SE 
262315Z AUTO 00000KT 10SM SCT090 SCT110 17/16 A2987 RMK AO2 T01700157
KI74 
29nm S 
262315Z AUTO 11003KT 10SM -RA SCT095 OVC120 17/16 A2986 RMK AO2 P0001
KOWX 
30nm NW 
262315Z AUTO 15008KT 10SM CLR 20/16 A2983 RMK AO1
KAXV 
31nm W 
262315Z AUTO 14006KT 10SM SCT075 18/16 A2983 RMK AO2
KDLZ 
31nm SE 
262315Z AUTO 10003KT 10SM RA SCT004 SCT027 BKN050 16/15 A2988 RMK AO2 P0001
TAF
KFDY 
24nm N 
262159Z 2622/2718 18010KT P6SM BKN035 FM270000 18011KT P6SM BKN035 TEMPO 2701/2705 -SHRA OVC020 FM270500 20008KT P6SM BKN035
NOTAMs
Click for the latest NOTAMs
NOTAMs are issued by the DoD/FAA and will open in a separate window not controlled by AirNav.

 

 
 

FBO, Fuel Providers, and Aircraft Ground Support

  
 Business Name 
 
 Contact 
 
 Services / Description 
 
Fuel Prices
 
Comments
  
Hardin County Airport 419-673-9542
no information available

If you are affiliated with Hardin County Airport and would like to show here your services, contact info, web link, logo, and more, click here
100LL Jet A
FS $5.85 $5.55 
 Updated 17-May-2022
 
   write
FS=Full service
Update Fuel Prices
 

Would you like to see your business listed on this page?

 If your business provides an interesting product or service to pilots, flight crews, aircraft, or users of the Hardin County Airport, you should consider listing it here.  To start the listing process, click on the button below
 
Add a business
 

Other Pages about Hardin County Airport

Update a link
 
Copyright © AirNav, LLC. All rights reserved. Privacy Policy  Contact